Regional Weather Roundup
Issued by NWS

Home | Current Version | Previous Version | Text Only | Print | Product List | Glossary Off
Versions: 1 2 3 4 5 6 7 8 9 10 11 12 13 14 15 16 17 18 19 20 21 22 23 24 25 26 27 28 29 30 31 32 33 34 35 36 37 38 39 40 41 42 43 44 45 46 47 48 49 50

647
ASUS43 KBIS 191110
RWRND

NORTH DAKOTA REGIONAL WEATHER ROUNDUP
NATIONAL WEATHER SERVICE BISMARCK ND
500 AM CST THU JAN 19 2017

NOTE: "FAIR" INDICATES FEW OR NO CLOUDS BELOW 12,000 FEET WITH NO
SIGNIFICANT WEATHER AND/OR OBSTRUCTIONS TO VISIBILITY.


NDZ001>003-009>011-017-191200-
NORTHWEST NORTH DAKOTA

CITY           SKY/WX    TMP DP  RH WIND       PRES   REMARKS
WILLISTON      FAIR      16  16 100 SW6       29.51F WCI   7
MINOT          FAIR      28  23  81 SW6       29.48F
MINOT AFB      CLOUDY    26  22  84 W3        29.47F
$$

NDZ018>021-031>035-040>046-191200-
SOUTHWEST NORTH DAKOTA

CITY           SKY/WX    TMP DP  RH WIND       PRES   REMARKS
BISMARCK       FAIR      11   6  81 CALM      29.56S
DICKINSON      FAIR      24  17  74 SW6       29.48F WCI  17
GARRISON         N/A     17  15  92 CALM      29.50S
HETTINGER ARPT CLOUDY    11   7  84 NW3       29.53F
$$

NDZ004>008-012>016-024-026-027-054-191200-
NORTHEAST NORTH DAKOTA

CITY           SKY/WX    TMP DP  RH WIND       PRES   REMARKS
GRAND FORKS    CLOUDY    26  20  77 S12       29.59F WCI  16
GRND FRKS AFB  CLOUDY    25  20  81 SW6       29.59F WCI  18
DEVILS LAKE    FAIR      23  18  81 S5        29.52F WCI  17
$$

NDZ022-023-025-028>030-036>039-047>053-191200-
SOUTHEAST NORTH DAKOTA

CITY           SKY/WX    TMP DP  RH WIND       PRES   REMARKS
FARGO          FOG       26  25  96 S8        29.65R VSB 1/2 WCI  18
JAMESTOWN      FAIR      20  16  84 CALM      29.56F
$$





USA.gov is the U.S. government's official web portal to all federal, state and local government web resources and services.